{"data":{"norad_id":65295,"intl_designator":"2025-184Y","name":"STARLINK-34834","alt_names":[],"object_type":"PAYLOAD","status":"ACTIVE","operator":null,"country":"US","launch_date":"2025-08-22","launch_site_code":"AFWTR","launch_vehicle":null,"mission":null,"orbit_class":"UNKNOWN","rcs_meters":null,"size_class":null,"mass_kg":null,"dimensions":null,"purposes":["comms"],"wikipedia_slug":null,"has_3d_model":false,"image_url":null,"decayed_at":null,"tle_current":{"epoch":"2026-05-25T02:32:08.002752Z","epoch_age_seconds":69035,"freshness":"FRESH","line1":"1 65295U 25184Y   26145.10564818  .00002298  00000+0  16326-3 0  9999","line2":"2 65295  97.4506 197.5320 0001674 134.4257 225.7108 15.05656462 42798","mean_motion":15.05656462,"eccentricity":0.0001674,"inclination_deg":97.4506,"raan_deg":197.532,"arg_perigee_deg":134.4257,"mean_anomaly_deg":225.7108,"bstar":0.00016326,"rev_number":4279,"period_min":95.63934644741,"perigee_km":548.33164758278,"apogee_km":550.65101754853,"semimajor_km":6927.6283325657,"source":"CELESTRAK","updated_at":"2026-05-25T13:38:20.756609Z"}}}